Current Version              Previous Version:    01  02  03  04  05  06  07  08  09  10  11  12  13  14  15  16  17  18  19  20  21  22  23  24  25  26  27  28  29  30  
   31  32  33  34  35  36  37  38  39  40  41  42  43  44  45  46  47  48  49  50  51  52  53  54  55  56  57  58  59  60  

[Printable]
160
ASUS44 KFWD 181901
RWRTX
NORTH TEXAS HOURLY WEATHER ROUNDUP
NATIONAL WEATHER SERVICE FORT WORTH TX
100 PM CST THU DEC 18 2014

NOTE: "FAIR" INDICATES FEW OR NO CLOUDS BELOW 12,000 FEET WITH NO
SIGNIFICANT WEATHER AND/OR OBSTRUCTIONS TO VISIBILITY.

TXZ118-119-182000-
DALLAS/FORT WORTH METROPLEX

CITY           SKY/WX    TMP DP  RH WIND       PRES   REMARKS
DFW AIRPORT    CLOUDY    48  45  89 N7        30.13F
DALLAS LOVE    CLOUDY    49  45  86 CALM      30.14F FOG
FTW MEACHAM    CLOUDY    50  45  83 CALM      30.12F
DAL-EXECUTIVE  CLOUDY    46  45  96 N3        30.12F FOG
FTW-ALLIANCE   CLOUDY    48  44  86 NW5       30.13F
FTW-SPINKS     CLOUDY    48  46  93 SE5       30.15F FOG
ARLINGTON      CLOUDY    50  44  80 N5        30.13F
GRAND PRAIRIE  CLOUDY    46  46 100 CALM      30.15F
MESQUITE       CLOUDY    46  45  93 CALM      30.15F FOG
LANCASTER      CLOUDY    47  44  90 CALM      30.15F FOG
$$

TXZ091>094-102>105-117-120-121-131>134-182000-
NORTH CENTRAL TEXAS

CITY           SKY/WX    TMP DP  RH WIND       PRES   REMARKS
SHRMAN/DENISON CLOUDY    44  44 100 CALM      30.16F FOG
BRIDGEPORT     CLOUDY    49  49 100 CALM      30.15F
DENTON         CLOUDY    48  45  89 CALM      30.14F
MCKINNEY       CLOUDY    46  44  93 CALM      30.15S
ROCKWALL       CLOUDY    46  45  95 CALM      30.13F
TERRELL        CLOUDY    49  45  86 NE5       30.14F
WAXAHACHIE     CLOUDY    48  48 100 NW6       30.14F
$$

TXZ083>090-098>101-113>116-127>130-139>142-154-155-182000-
WESTERN NORTH TEXAS

CITY           SKY/WX    TMP DP  RH WIND       PRES   REMARKS
WICHITA FALLS  CLOUDY    46  44  93 N3        30.13F FOG
ABILENE        MOSUNNY   64  37  36 VRB7      30.09F
ABILENE-DYESS  MOSUNNY   62  33  33 N12       30.08F
MINERAL WELLS  CLOUDY    50  45  83 CALM      30.10F
STEPHENVILLE   MOSUNNY   59  49  69 CALM      30.12F
COMANCHE       SUNNY     62  50  65 CALM      30.10F
$$

TXZ143>147-156>162-174-175-182000-
CENTRAL TEXAS

CITY           SKY/WX    TMP DP  RH WIND       PRES   REMARKS
WACO           CLOUDY    51  49  92 N6        30.11F FOG
WACO-TSTC      CLOUDY    52  50  93 CALM      30.12F FOG
WACO-MCGREGOR  CLOUDY    52  46  82 N6        30.12F
CORSICANA      CLOUDY    49  47  93 N6        30.14F FOG
MEXIA          CLOUDY    50  49  97 N3        30.12F FOG
HEARNE         CLOUDY    55  53  94 CALM      30.12F FOG
TEMPLE         CLOUDY    54  48  82 NW8       30.09F
KILLEEN        CLOUDY    57  54  91 NW7       30.09F FOG
KILLEEN-SKYLRK CLOUDY    55  48  76 NW5       30.07F
FORT HOOD      CLOUDY    56  53  90 NW5       30.09F FOG
HAMILTON       SUNNY     63  52  68 CALM      30.10F
LAMPASAS       MOSUNNY   61  55  81 NW6       30.07F
$$

TXZ095>097-106>112-122>126-135>138-148>153-164>167-182000-
EAST TEXAS

CITY           SKY/WX    TMP DP  RH WIND       PRES   REMARKS
PARIS          CLOUDY    43  39  87 E7        30.16F WCI  39
SULPHUR SPRNGS CLOUDY    45  44  97 NE5       30.17F FOG
MINEOLA        CLOUDY    46  46 100 CALM      30.15F FOG
TYLER          CLOUDY    49  47  93 N5        30.13F FOG
LONGVIEW       CLOUDY    50  45  83 VRB3      30.13F
PALESTINE      CLOUDY    51  50  97 CALM      30.14F FOG
JACKSONVILLE   CLOUDY    50  49  97 CALM      30.14S FOG
NACOGDOCHES    CLOUDY    54  46  76 CALM      30.12F
LUFKIN         CLOUDY    59  49  69 NE5       30.10F
$$

SUPPLEMENTAL OBSERVATIONS (CENTRAL)

CITY           SKY/WX    TMP DP  RH WIND       PRES   REMARKS
$$

SUPPLEMENTAL OBSERVATIONS (WEST)

CITY           SKY/WX    TMP DP  RH WIND       PRES   REMARKS
$$

SUPPLEMENTAL OBSERVATIONS (EAST)

CITY           SKY/WX    TMP DP  RH WIND       PRES   REMARKS
$$

SUPPLEMENTAL OBSERVATIONS ARE A COLLECTION OF AUTOMATED INSTRUMENTS
THAT ARE MAINTAINED BY A VARIETY OF FEDERAL AND STATE AGENCIES.
CERTAIN ELEMENTS...SUCH AS HUMIDITY VALUES AND SUSTAINED WIND
SPEEDS...MAY BE APPROXIMATED.